Погода в Мурманске

Погода в Мурманске : погода сейчас, прогноз погоды и архив. Всё, что Вы хотите узнать о погоде в Мурманске!

Поиск расширенной информации на нашем сайте:

Другие новости

Новости СМИ2

Главная страница сайта

Новости сайта

03.07.2017

Напоминаем, что на нашем специализированном сайте Метеоцентр.Азия вы можете получить высокодетализированные автоматические прогнозы погоды по пунктам России, СНГ и мира в авиационном формате (включающие направление и скорость ветра, видимость, явления погоды, количество и форму облачности, нижнюю и верхнюю границу облачности).


Погода в Мурманске - сегодня

Время (UTC), дата Ветер
(°,м/с) 
Видим.   Явления Облачность Т
(°С)
Тd
(°С)
f(%) Тe
(°С)
Pmin
(гПа)
dP
(гПа)
Po
(мм)
O2
(г/м3)
Тmin Tmax R s Состояние
почвы
09 18.07.17 200 (Ю) 5-8{10}  10 км  гроза без осадков  9/8 300 м кучево-дожд., средняя 
[Cb cap|Ac trans]
+19.5 +12.8 65 +25  999.3  -0.1  745  278           
12 18.07.17 190 (Ю) 5-9{11}  20000 м  {гроза, ливн. осадки}  9/8 600 м кучево-дожд., средняя, верхняя 
[Cb cap|Ac cuf|Ci fib]
+21.7 +10.8 50 +24  999.7  0.4  745  276           
15 18.07.17 190 (Ю) 4-8{10}  20000 м    9/6 600 м кучево-дожд., средняя 
[Cb cap|Ac trans]
+20.1 +9.5 50 +21  1000.9  1.2  746  278      0.8     
18 18.07.17 180 (Ю) 2-3{10}  20000 м    9/8 600 м кучево-дожд., средняя 
[Cb cap|Ac trans]
+18.4 +11 62 +22  1002.4  1.4  747  280    +22.1  0.8     
21 18.07.17 180 (Ю) 3-4  20000 м    9/8 600 м кучево-дожд., средняя 
[Cb cap|Ac trans]
+16 +12.2 78 +20  1003.8  1.3  748  282           
00 19.07.17 170 (Ю) 2-3  20000 м    6/5 600 м средняя 
[Sc|Ac trans]
+13.8 +11.8 88 +18  1005  1.2  749  285           
03 19.07.17 170 (Ю) 2-3  20000 м    1/1 600 м 
[Cu Sc]
+14.4 +11.2 81 +18  1006.6  1.6  750  285  +13.4         
06 19.07.17 220 (ЮЗ) 1-3  20000 м    6/6 300 м 
[Cu med, cong]
+16.6 +10.4 67 +20  1007.5  751  283  +13.4        сухая 
09 19.07.17 360 (С) 5-7  20000 м    6/6 300 м 
[Cu med, cong]
+17 +11.3 69 +20  1008.5  0.9  752  283           
12 19.07.17 030 (СВ) 6-9{10}  20000 м    9/9 300 м кучево-дожд. 
[Cb cap]
+14 +9.8 76 +14  1010.1  1.6  753  287           
15 19.07.17 040 (СВ) 6-9{10}  20000 м    10/10 300 м кучево-дожд. 
[Cb cap]
+11.6 +8.6 82 +10  1011.4  1.2  754  290           
18 19.07.17 010 (С) 5-8  20000 м    10/10 300 м кучево-дожд. 
[Cb cap]
+10.7 +8.2 85 +10  1012.3  0.9  755  291    +19.1       
21 19.07.17 030 (СВ) 5-8  20000 м  {ливн. осадки}  10/10 300 м кучево-дожд. 
[Cb cap]
+9.9 +7.6 86 +9  1013.1  0.7  755  292           
00 20.07.17 020 (С) 3-5  20000 м  {ливн. осадки}  10/10 300 м кучево-дожд. 
[Cb cap]
+9.9 +7.4 84 +9  1013.5  0.4  755  293           
03 20.07.17 010 (С) 3-5  20000 м    10/10 600 м кучево-дожд. 
[Cb cap]
+10 +7.4 84 +10  1014.2  0.7  756  293  +9.7    0.0     
06 20.07.17 350 (С) 4-5  20000 м    10/8 600 м кучево-дожд., средняя 
[Cb cap|Ac As]
+11.1 +7.6 79 +10  1014.4  0.3  756  292  +9.7    0.0    сухая 
09 20.07.17 010 (С) 5-7  20000 м  слаб. ливневой дождь  10/10 300 м кучево-дожд. 
[Cb cap]
+11.4 +7.8 79 +10  1015  0.6  757  291           
12 20.07.17 030 (СВ) 5-8  20000 м  слаб. ливневой дождь  10/10 300 м кучево-дожд. 
[Cb cap]
+11.4 +8.2 81 +10  1015.3  0.3  757  291           
15 20.07.17 010 (С) 5-9{11}  20000 м  слаб. ливневой дождь  10/10 300 м кучево-дожд. 
[Cb cap]
+10.2 +7.6 84 +9  1016  0.6  757  293      0.0     
18 20.07.17 010 (С) 5-9{10}  20000 м  {ливн. осадки}  10/10 300 м кучево-дожд. 
[Cb cap]
+9.7 +6.4 80 +8  1016.8  0.7  758  294    +12.6  0.0     
21 20.07.17 010 (С) 4-6  20000 м  в посл. час ливневой дождь  10/10 300 м кучево-дожд. 
[Cb cap]
+9 +6.8 86 +8  1016.8  758  295           
00 21.07.17 360 (С) 5-8{10}  20000 м  {ливн. осадки}  10/10 300 м кучево-дожд. 
[Cb cap]
+8.9 +5.9 81 +7  1017.3  0.5  758  295           
03 21.07.17 350 (С) 5-7{10}  20000 м  слаб. ливневой дождь  10/10 300 м кучево-дожд. 
[Cb cap]
+8.3 +6.9 91 +7  1017.6  0.3  759  295  +8    0.0     
06 21.07.17 360 (С) 4-7  20000 м  в посл. час ливневой дождь  10/10 300 м кучево-дожд. 
[Cb cap]
+8.7 +7.2 90 +8  1018.1  0.5  759  295  +8    0.1    влажная 
09 21.07.17 020 (С) 5-8  20000 м    10/10 300 м кучево-дожд. 
[Cb cap]
+9.9 +7.1 83 +9  1018.5  0.4  759  294           
Время (UTC), дата Ветер
(°,м/с) 
Видим.   Явления Облачность Т
(°С)
Тd
(°С)
f(%) Тe
(°С)
Pmin
(гПа)
dP
(гПа)
Po
(мм)
O2
(г/м3)
Тmin Tmax R s Состояние
почвы

Для получения пояснительной информации подведите курсор к названию столбца.

ПОГОДА в Мурманске - архив

Всё, что Вы хотите узнать о погоде в Мурманске - удобно и подробно!

Выберите нужную дату (начиная с 1 января 2015* года) и нажмите кнопку "Найти".
Будут отображены архивные сводки погоды по пункту Мурманск, начиная с указанной даты.


Отображать данные в формате CSV (для использования в таблицах Excel)


Внимание! Наш архив погоды предназначен исключительно для личного некоммерческого использования в познавательных целях. Если Вам необходимы официальные справки о состоянии погоды (для производственных, юридических, коммерческих и т.п. целей), обращайтесь в органы Росгидромета.

*Примечание: данная дата относится к архиву по метеостанциям СССР (Россия, СНГ, Балтия).
Архив по метеостанциям Зарубежной Европы и Азии (кроме Китая) хранится 10 дней, по другим регионам земного шара (Китай, Африка, Америка, Австралия, Океания) - 1 день.

Мурманск - район местоположения метеостанции


Название, широта, долгота, высота метеостанции:
Мурманск (город) 69°ш. 33.1°д. 51 м над ур. моря [Российская Федерация]

Дополнительная информация

В oтличие oт бoльшинства пoгoдных сайтoв мы публикуем пoдрoбную метеoинфoрмацию в детальнoм прoфессиoнальнoм фoрмате.

Характеристики температуры и влажнoсти вoздуха измеряются на высoте 2 м в тени вдали oт зданий и деревьев.
Скoрoсть ветра измеряется на высoте 10 м (на урoвне рoста челoвека скoрoсть ветра ниже в 1.5-2 раза). Если метеoстанция нахoдится в гoрoде или в лесу, тo скoрoсть ветра занижена на 2-4 м/с пo сравнению с oткрытым местoм. Скoрoсть ветра над акватoриями крупных рек и oзёр, а также на вершинах хoлмoв на 2-5 м/с выше, чем в oбычных услoвиях.
Атмoсфернoе давление в разных тoчках местнoсти мoжет значительнo oтличаться oт давления на метеoстанции, в зависимoсти oт услoвий рельефа (при пoдъёме на 10 м давление пoнижается примернo на 1 мм рт.ст.).